DW8248 Weather Reports


time (UTC)temp
F
wind
direction
speed
knots
gust
knots
rain 1hr
in
rain 24hr
in
rain mn
in
humidity
%
barometer
mb
20260506060347 77 101 3.5 7.0 0.00 0.00 0.00 74 1015.8
20260506051059 77 94 2.6 6.1 0.00 0.00 0.00 70 1016.1
20260506045013 77 126 3.5 8.7 0.00 0.00 0.00 70 1016.0
20260506043939 77 114 4.3 7.8 0.00 0.00 0.00 70 1016.0
20260506042908 77 104 3.5 8.7 0.00 0.00 0.00 70 1016.0
20260506040738 77 88 4.3 8.7 0.00 0.00 0.00 70 1016.2
20260506035730 77 129 3.5 8.7 0.00 0.00 0.00 70 1016.3
20260506034746 77 92 2.6 7.8 0.00 0.00 0.00 70 1016.3
20260506033714 77 111 3.5 10.4 0.00 0.00 0.00 69 1016.3
20260506032721 77 102 3.5 10.4 0.00 0.00 0.00 69 1016.4
20260506030536 77 92 3.5 7.8 0.00 0.00 0.00 70 1016.3
20260506025555 77 99 3.5 7.8 0.00 0.00 0.00 70 1016.4
20260506021115 77 104 3.5 7.8 0.00 0.00 0.00 70 1016.1
20260506020107 77 121 3.5 7.8 0.00 0.00 0.00 70 1016.1
20260506014024 77 80 3.5 9.6 0.00 0.00 0.00 69 1015.9
20260506013033 77 80 3.5 8.7 0.00 0.00 0.00 69 1015.7
20260506012028 77 103 4.3 10.4 0.00 0.00 0.00 68 1015.4
20260506011042 77 113 4.3 10.4 0.00 0.00 0.00 69 1015.2
20260506004856 77 0 3.5 8.7 0.00 0.00 0.00 67 1015.3
20260506003914 77 76 3.5 9.6 0.00 0.00 0.00 69 1015.1
20260506002841 77 99 3.5 9.6 0.00 0.00 0.00 66 1015.2
20260506001835 77 0 3.5 8.7 0.00 0.00 0.00 67 1015.2
20260506000840 77 77 3.5 8.7 0.00 0.00 0.00 67 1015.1
20260505235822 77 42 2.6 8.7 0.00 0.00 0.00 67 1015.0
20260505233621 78 81 4.3 8.7 0.00 0.00 0.00 62 1015.0
20260505232622 78 93 3.5 8.7 0.00 0.00 0.00 61 1015.0
20260505230531 78 88 3.5 7.8 0.00 0.00 0.00 63 1015.2
20260505225542 78 66 4.3 9.6 0.00 0.00 0.00 64 1015.2
20260505224554 79 53 4.3 9.6 0.00 0.00 0.00 63 1015.3
20260505223518 79 88 3.5 9.6 0.00 0.00 0.00 63 1015.4
20260505222507 79 40 4.3 10.4 0.00 0.00 0.00 64 1015.4
20260505221510 79 42 4.3 10.4 0.00 0.00 0.00 61 1015.3
20260505220516 79 46 4.3 9.6 0.00 0.00 0.00 62 1015.3
20260505215444 80 57 4.3 9.6 0.00 0.00 0.00 59 1015.2
20260505214410 79 67 5.2 9.6 0.00 0.00 0.00 60 1015.2
20260505213430 80 40 4.3 9.6 0.00 0.00 0.00 63 1015.2
20260505211330 80 61 4.3 10.4 0.00 0.00 0.00 63 1015.0
20260505210344 80 78 5.2 9.6 0.00 0.00 0.00 63 1015.0
20260505205404 80 46 5.2 10.4 0.00 0.00 0.00 63 1015.1
20260505204407 80 50 4.3 10.4 0.00 0.00 0.00 63 1015.0
20260505203405 80 76 5.2 10.4 0.00 0.00 0.00 60 1015.1
20260505202412 80 49 4.3 10.4 0.00 0.00 0.00 59 1015.2
20260505201416 80 94 6.1 10.4 0.00 0.00 0.00 61 1015.3
20260505200425 80 59 5.2 9.6 0.00 0.00 0.00 61 1015.2
20260505194206 80 65 4.3 8.7 0.00 0.00 0.00 62 1015.6
20260505193227 80 98 5.2 9.6 0.00 0.00 0.00 59 1015.7
20260505192230 80 46 5.2 10.4 0.00 0.00 0.00 61 1015.8
20260505191212 80 55 5.2 10.4 0.00 0.00 0.00 62 1015.8
20260505190202 80 94 5.2 9.6 0.00 0.00 0.00 61 1016.0
20260505185127 81 48 4.3 9.6 0.00 0.00 0.00 60 1016.1
20260505184115 80 59 5.2 9.6 0.00 0.00 0.00 60 1016.2
20260505183120 80 60 4.3 8.7 0.00 0.00 0.00 62 1016.3
20260505182122 79 87 5.2 8.7 0.00 0.00 0.00 63 1016.3
20260505181117 79 61 5.2 8.7 0.00 0.00 0.00 62 1016.4
20260505180048 80 90 4.3 11.3 0.00 0.00 0.00 59 1016.4
20260505175026 80 64 5.2 10.4 0.00 0.00 0.00 59 1016.5
20260505172902 80 16 5.2 10.4 0.00 0.00 0.00 62 1016.5
20260505171858 79 68 4.3 10.4 0.00 0.00 0.00 64 1016.5
20260505170834 79 114 5.2 10.4 0.00 0.00 0.00 61 1016.6
20260505165824 80 86 5.2 11.3 0.00 0.00 0.00 60 1016.6
20260505164840 80 67 5.2 11.3 0.00 0.00 0.00 61 1016.5
20260505163809 80 88 4.3 10.4 0.00 0.00 0.00 62 1016.5
20260505162750 80 92 4.3 10.4 0.00 0.00 0.00 62 1016.7
20260505161724 79 59 5.2 10.4 0.00 0.00 0.00 62 1016.6
20260505160733 79 144 6.1 10.4 0.00 0.00 0.00 64 1016.6
20260505153352 79 101 5.2 11.3 0.00 0.00 0.00 62 1016.6
20260505152316 79 98 5.2 10.4 0.00 0.00 0.00 64 1016.5
20260505151301 79 77 5.2 12.2 0.00 0.00 0.00 66 1016.4
20260505150257 79 95 6.1 12.2 0.00 0.00 0.00 66 1016.3
20260505124709 77 115 5.2 11.3 0.00 0.00 0.00 68 1015.7
20260505123637 77 91 5.2 9.6 0.00 0.00 0.00 68 1015.6
20260505122627 77 76 5.2 9.6 0.00 0.00 0.00 68 1015.8
20260505121638 77 107 4.3 12.2 0.00 0.00 0.00 69 1016.1
20260505120658 77 76 5.2 12.2 0.00 0.00 0.00 69 1016.0
20260505115710 76 71 3.5 12.2 0.00 0.00 0.00 69 1015.7
20260505112355 75 115 4.3 10.4 0.00 0.00 0.00 69 1015.3
20260505111355 75 73 4.3 10.4 0.00 0.00 0.00 70 1015.0
20260505110357 75 75 3.5 8.7 0.00 0.00 0.00 69 1014.8
20260505100134 75 105 3.5 7.0 0.00 0.00 0.00 70 1014.4
20260505095152 75 128 2.6 7.0 0.00 0.00 0.00 70 1014.3
20260505094125 75 78 4.3 8.7 0.00 0.00 0.00 70 1014.2
20260505093104 75 48 3.5 8.7 0.00 0.00 0.00 69 1014.2
20260505084824 75 108 3.5 7.8 0.00 0.00 0.00 70 1013.9
20260505083751 75 67 2.6 6.1 0.00 0.00 0.00 70 1013.9
20260505082757 75 98 3.5 7.8 0.00 0.00 0.00 70 1013.9
20260505081801 75 115 2.6 8.7 0.00 0.00 0.00 70 1013.7
20260505080747 75 102 3.5 8.7 0.00 0.00 0.00 69 1014.0
20260505075745 75 105 2.6 8.7 0.00 0.00 0.00 71 1013.9
20260505073607 75 96 4.3 8.7 0.00 0.00 0.00 70 1014.0
20260505072622 75 107 3.5 7.8 0.00 0.00 0.00 70 1014.2
20260505071602 75 93 3.5 7.8 0.00 0.00 0.00 70 1014.3
20260505070608 75 111 2.6 9.6 0.00 0.00 0.00 69 1014.2
20260505065542 75 123 3.5 9.6 0.00 0.00 0.00 70 1014.3
20260505064531 75 129 4.3 9.6 0.00 0.00 0.00 71 1014.3
20260505063456 75 118 3.5 7.8 0.00 0.00 0.00 70 1014.4
20260505062419 75 101 3.5 9.6 0.00 0.00 0.00 70 1014.7